User: anonymous   Login
Location: Unspecified
(0.0000°N, 0.0000°E)
Time: 00:48:45
(UTC+00:00)
Language:

TBA - TO BE ASSIGNED - Orbit

View from above orbital plane
View from above orbital plane
View from above satellite
View from above satellite

Ground track
Ground track

The orbit is defined by the following mean orbital elements,

1 67983U          26145.48609110 +.00000000 +00000-0 +40610-3 0 00007
2 67983  97.2839 155.5876 0001361  93.4674 266.6724 15.33452106    07
Epoch (UTC): 25 May 2026 11:39:58
Eccentricity: 0.0001361
inclination: 97.2839°
perigee height: 465 km
apogee height: 466 km
right ascension of ascending node: 155.5876°
argument of perigee: 93.4674°
revolutions per day: 15.33452106
mean anomaly at epoch: 266.6724°

The dashed part of the orbit path shows where the satellite is in the earth's shadow,  

DLR